JRR96F EGNX-EGPH

Flight info

Callsign JRR96F
Flight time 0h 40m
Altitude 24000
Route TNT N57 POL N601 RIBEL DCT INPIP
Aircraft B738/M-SDE2E3FGHIRWXY/LB1

Departure

Time 2026-04-23 21:41
Airport East Midlands Airport (EGNX)

Arrival

Time 2026-04-23 22:21
Airport Edinburgh Airport (EGPH)
Time Latitude Longitude Altitude Speed Heading
2026-04-23 21:22 52.82809 -1.31977 300 ft 0 kts 178°
2026-04-23 21:32 52.82820 -1.31978 301 ft 2 kts 180°
2026-04-23 21:32 52.82837 -1.31978 300 ft 2 kts 182°
2026-04-23 21:32 52.82853 -1.31977 300 ft 2 kts 186°
2026-04-23 21:32 52.82870 -1.31972 300 ft 2 kts 204°
2026-04-23 21:33 52.82880 -1.31954 300 ft 2 kts 266°
2026-04-23 21:33 52.82881 -1.31947 300 ft 0 kts 268°
2026-04-23 21:33 52.82881 -1.31948 300 ft 0 kts 268°
2026-04-23 21:35 52.82880 -1.31967 300 ft 4 kts 268°
2026-04-23 21:35 52.82878 -1.32067 300 ft 11 kts 268°
2026-04-23 21:35 52.82885 -1.32142 300 ft 5 kts 308°
2026-04-23 21:35 52.82920 -1.32167 302 ft 6 kts 335°
2026-04-23 21:36 52.82940 -1.32321 300 ft 11 kts 269°
2026-04-23 21:36 52.82938 -1.32477 300 ft 15 kts 268°
2026-04-23 21:36 52.82934 -1.32671 300 ft 19 kts 268°
2026-04-23 21:37 52.82929 -1.32911 301 ft 22 kts 268°
2026-04-23 21:37 52.82925 -1.33165 301 ft 22 kts 268°
2026-04-23 21:37 52.82920 -1.33413 307 ft 21 kts 268°
2026-04-23 21:37 52.82915 -1.33667 306 ft 23 kts 268°
2026-04-23 21:38 52.82911 -1.33932 303 ft 23 kts 268°
2026-04-23 21:38 52.82906 -1.34211 300 ft 26 kts 269°
2026-04-23 21:38 52.82906 -1.34495 304 ft 25 kts 268°
2026-04-23 21:38 52.82901 -1.34770 304 ft 22 kts 270°
2026-04-23 21:39 52.82902 -1.34901 305 ft 8 kts 284°
2026-04-23 21:39 52.82947 -1.34938 304 ft 8 kts
2026-04-23 21:39 52.83019 -1.34939 304 ft 12 kts 359°
2026-04-23 21:39 52.83063 -1.34896 303 ft 8 kts 77°
2026-04-23 21:40 52.83065 -1.34788 302 ft 14 kts 88°
2026-04-23 21:40 52.83075 -1.34233 303 ft 86 kts 88°
2026-04-23 21:40 52.83100 -1.32869 302 ft 149 kts 88°
2026-04-23 21:40 52.83132 -1.30982 755 ft 169 kts 88°
2026-04-23 21:41 52.83060 -1.29065 1759 ft 165 kts 96°
2026-04-23 21:41 52.82935 -1.27178 2676 ft 165 kts 95°
2026-04-23 21:41 52.83003 -1.25303 3598 ft 165 kts 75°
2026-04-23 21:41 52.83574 -1.23534 4124 ft 192 kts 51°
2026-04-23 21:42 52.84764 -1.22222 4413 ft 220 kts 20°
2026-04-23 21:42 52.86379 -1.22128 4614 ft 254 kts 346°
2026-04-23 21:42 52.87915 -1.23801 5097 ft 274 kts 307°
2026-04-23 21:42 52.88793 -1.26545 6091 ft 275 kts 296°
2026-04-23 21:43 52.89688 -1.29385 6912 ft 281 kts 301°
2026-04-23 21:43 52.90705 -1.32143 7845 ft 281 kts 303°
2026-04-23 21:43 52.91784 -1.34891 8610 ft 288 kts 304°
2026-04-23 21:43 52.92915 -1.37657 9484 ft 291 kts 305°
2026-04-23 21:44 52.94068 -1.40428 10365 ft 294 kts 306°
2026-04-23 21:44 52.95247 -1.43249 10967 ft 306 kts 306°
2026-04-23 21:44 52.96516 -1.46287 11153 ft 332 kts 306°
2026-04-23 21:44 52.97883 -1.49557 11320 ft 357 kts 306°
2026-04-23 21:45 52.99364 -1.52991 11676 ft 372 kts 306°
2026-04-23 21:45 53.00898 -1.56499 12333 ft 377 kts 306°
2026-04-23 21:45 53.02436 -1.60026 13162 ft 378 kts 306°
2026-04-23 21:45 53.03989 -1.63598 13906 ft 383 kts 307°
2026-04-23 21:46 53.05794 -1.66769 14594 ft 386 kts 323°
2026-04-23 21:46 53.08187 -1.68910 15380 ft 387 kts 340°
2026-04-23 21:46 53.10701 -1.70405 16125 ft 390 kts 341°
2026-04-23 21:46 53.13283 -1.71917 16818 ft 395 kts 340°
2026-04-23 21:47 53.15785 -1.73428 17483 ft 399 kts 340°
2026-04-23 21:47 53.18404 -1.75044 18192 ft 403 kts 340°
2026-04-23 21:47 53.21043 -1.76684 18864 ft 407 kts 339°
2026-04-23 21:47 53.23708 -1.78346 19461 ft 411 kts 340°
2026-04-23 21:48 53.26397 -1.80025 20097 ft 413 kts 340°
2026-04-23 21:48 53.29096 -1.81711 20712 ft 416 kts 340°
2026-04-23 21:48 53.31824 -1.83417 21312 ft 419 kts 340°
2026-04-23 21:48 53.34562 -1.85130 21903 ft 421 kts 340°
2026-04-23 21:49 53.37314 -1.86855 22469 ft 425 kts 340°
2026-04-23 21:49 53.40096 -1.88600 23014 ft 428 kts 340°
2026-04-23 21:49 53.42878 -1.90349 23545 ft 431 kts 340°
2026-04-23 21:49 53.45712 -1.92132 24078 ft 434 kts 341°
2026-04-23 21:50 53.48482 -1.93876 24402 ft 436 kts 341°
2026-04-23 21:50 53.51339 -1.95679 24437 ft 444 kts 341°
2026-04-23 21:50 53.54263 -1.97524 24447 ft 452 kts 341°
2026-04-23 21:50 53.57220 -1.99392 24444 ft 455 kts 341°
2026-04-23 21:51 53.60194 -2.01273 24433 ft 453 kts 341°
2026-04-23 21:51 53.63136 -2.03137 24443 ft 451 kts 341°
2026-04-23 21:51 53.66065 -2.04996 24447 ft 450 kts 341°
2026-04-23 21:51 53.68991 -2.06854 24445 ft 449 kts 341°
2026-04-23 21:52 53.71909 -2.08710 24451 ft 448 kts 341°
2026-04-23 21:52 53.74826 -2.10572 24448 ft 447 kts 340°
2026-04-23 21:52 53.77716 -2.12516 24455 ft 447 kts 339°
2026-04-23 21:52 53.80585 -2.14520 24445 ft 447 kts 339°
2026-04-23 21:53 53.83466 -2.16534 24448 ft 447 kts 339°
2026-04-23 21:53 53.86339 -2.18529 24452 ft 447 kts 339°
2026-04-23 21:53 53.89222 -2.20511 24446 ft 447 kts 339°
2026-04-23 21:53 53.92103 -2.22480 24453 ft 447 kts 340°
2026-04-23 21:54 53.94986 -2.24452 24450 ft 447 kts 340°
2026-04-23 21:54 53.97877 -2.26434 24448 ft 447 kts 339°
2026-04-23 21:54 54.00723 -2.28392 24451 ft 447 kts 339°
2026-04-23 21:54 54.03604 -2.30377 24450 ft 447 kts 339°
2026-04-23 21:55 54.06482 -2.32360 24447 ft 447 kts 339°
2026-04-23 21:55 54.09403 -2.34376 24447 ft 447 kts 339°
2026-04-23 21:55 54.12288 -2.36370 24447 ft 447 kts 339°
2026-04-23 21:55 54.15128 -2.38336 24447 ft 447 kts 339°
2026-04-23 21:56 54.18015 -2.40337 24455 ft 447 kts 339°
2026-04-23 21:56 54.20892 -2.42335 24449 ft 447 kts 339°
2026-04-23 21:56 54.23778 -2.44342 24446 ft 447 kts 339°
2026-04-23 21:56 54.26665 -2.46353 24455 ft 448 kts 339°
2026-04-23 21:57 54.29545 -2.48362 24449 ft 448 kts 339°
2026-04-23 21:57 54.32435 -2.50381 24450 ft 449 kts 339°
2026-04-23 21:57 54.35334 -2.52409 24447 ft 449 kts 339°
2026-04-23 21:57 54.38221 -2.54433 24444 ft 449 kts 339°
2026-04-23 21:58 54.41121 -2.56469 24452 ft 449 kts 339°
2026-04-23 21:58 54.44018 -2.58505 24450 ft 450 kts 339°
2026-04-23 21:58 54.46926 -2.60553 24447 ft 450 kts 339°
2026-04-23 21:58 54.49788 -2.62571 24449 ft 451 kts 339°
2026-04-23 21:59 54.52695 -2.64624 24449 ft 451 kts 339°
2026-04-23 21:59 54.55599 -2.66678 24450 ft 451 kts 339°
2026-04-23 21:59 54.58515 -2.68744 24442 ft 452 kts 339°
2026-04-23 22:00 54.63352 -2.72177 24452 ft 452 kts 339°
2026-04-23 22:00 54.66267 -2.74250 24444 ft 452 kts 339°
2026-04-23 22:00 54.69180 -2.76326 24449 ft 453 kts 339°
2026-04-23 22:00 54.72092 -2.78404 24447 ft 453 kts 338°
2026-04-23 22:01 54.75006 -2.80487 24448 ft 453 kts 338°
2026-04-23 22:01 54.77924 -2.82576 24448 ft 454 kts 338°
2026-04-23 22:01 54.80844 -2.84670 24442 ft 454 kts 338°
2026-04-23 22:01 54.83761 -2.86763 24441 ft 454 kts 338°
2026-04-23 22:02 54.86683 -2.88864 24438 ft 454 kts 338°
2026-04-23 22:02 54.89600 -2.90968 24438 ft 455 kts 338°
2026-04-23 22:02 54.92524 -2.93084 24438 ft 455 kts 338°
2026-04-23 22:02 54.95435 -2.95197 24436 ft 455 kts 338°
2026-04-23 22:03 54.98356 -2.97320 24212 ft 456 kts 339°
2026-04-23 22:03 55.01253 -2.99430 23505 ft 451 kts 338°
2026-04-23 22:03 55.04158 -3.01548 22793 ft 443 kts 338°
2026-04-23 22:03 55.06944 -3.03581 22075 ft 436 kts 338°
2026-04-23 22:04 55.09725 -3.05615 21352 ft 431 kts 338°
2026-04-23 22:04 55.12469 -3.07623 20646 ft 425 kts 337°
2026-04-23 22:04 55.15162 -3.09597 20363 ft 410 kts 337°
2026-04-23 22:04 55.17784 -3.11519 19718 ft 407 kts 337°
2026-04-23 22:05 55.20380 -3.13423 19139 ft 402 kts 337°
2026-04-23 22:05 55.22958 -3.15316 18523 ft 399 kts 336°
2026-04-23 22:05 55.25503 -3.17187 17866 ft 395 kts 336°
2026-04-23 22:05 55.28029 -3.19048 17250 ft 391 kts 336°
2026-04-23 22:06 55.30523 -3.20888 16659 ft 386 kts 336°
2026-04-23 22:06 55.32987 -3.22708 16084 ft 382 kts 336°
2026-04-23 22:06 55.35422 -3.24509 15521 ft 378 kts 336°
2026-04-23 22:06 55.37836 -3.26297 14970 ft 374 kts 336°
2026-04-23 22:07 55.40226 -3.28069 14423 ft 371 kts 336°
2026-04-23 22:07 55.42593 -3.29828 13830 ft 368 kts 336°
2026-04-23 22:07 55.44914 -3.31553 13234 ft 365 kts 336°
2026-04-23 22:07 55.47218 -3.33268 12689 ft 361 kts 336°
2026-04-23 22:08 55.49520 -3.34986 12145 ft 358 kts 335°
2026-04-23 22:08 55.51636 -3.37208 11626 ft 353 kts 321°
2026-04-23 22:08 55.53482 -3.40022 11108 ft 349 kts 316°
2026-04-23 22:08 55.55245 -3.42926 10585 ft 346 kts 315°
2026-04-23 22:09 55.57004 -3.45779 10330 ft 336 kts 316°
2026-04-23 22:09 55.58705 -3.48446 10304 ft 319 kts 317°
2026-04-23 22:09 55.60353 -3.50965 10209 ft 306 kts 317°
2026-04-23 22:09 55.61925 -3.53342 10074 ft 288 kts 318°
2026-04-23 22:10 55.63400 -3.55568 9947 ft 271 kts 317°
2026-04-23 22:10 55.64806 -3.57648 9827 ft 256 kts 319°
2026-04-23 22:10 55.66151 -3.59583 9669 ft 244 kts 319°
2026-04-23 22:10 55.67438 -3.61498 9306 ft 239 kts 310°
2026-04-23 22:11 55.68318 -3.63959 8888 ft 236 kts 292°
2026-04-23 22:11 55.68938 -3.66649 8493 ft 236 kts 289°
2026-04-23 22:11 55.69528 -3.69359 8099 ft 235 kts 289°
2026-04-23 22:11 55.70102 -3.72027 7734 ft 234 kts 289°
2026-04-23 22:12 55.70677 -3.74727 7362 ft 234 kts 289°
2026-04-23 22:12 55.71467 -3.77231 6961 ft 236 kts 313°
2026-04-23 22:12 55.72667 -3.79200 6603 ft 234 kts 318°
2026-04-23 22:12 55.73895 -3.81060 6327 ft 229 kts 319°
2026-04-23 22:13 55.75093 -3.82856 6112 ft 221 kts 319°
2026-04-23 22:13 55.76226 -3.84543 6037 ft 204 kts 319°
2026-04-23 22:13 55.77297 -3.86130 5735 ft 198 kts 319°
2026-04-23 22:13 55.78531 -3.87129 5280 ft 200 kts 359°
2026-04-23 22:14 55.79789 -3.86274 4835 ft 196 kts 48°
2026-04-23 22:14 55.80378 -3.84190 4573 ft 184 kts 75°
2026-04-23 22:14 55.80731 -3.81965 4104 ft 188 kts 76°
2026-04-23 22:14 55.81079 -3.79712 3769 ft 189 kts 76°
2026-04-23 22:15 55.81511 -3.77523 3485 ft 188 kts 65°
2026-04-23 22:15 55.82139 -3.75502 3202 ft 186 kts 61°
2026-04-23 22:15 55.82798 -3.73515 3041 ft 188 kts 61°
2026-04-23 22:15 55.83470 -3.71508 3005 ft 189 kts 60°
2026-04-23 22:16 55.84137 -3.69520 2988 ft 185 kts 61°
2026-04-23 22:16 55.84785 -3.67588 2979 ft 183 kts 60°
2026-04-23 22:16 55.85426 -3.65675 2969 ft 175 kts 61°
2026-04-23 22:16 55.86030 -3.63876 2974 ft 167 kts 60°
2026-04-23 22:17 55.86621 -3.62114 2989 ft 164 kts 61°
2026-04-23 22:17 55.87208 -3.60366 2939 ft 165 kts 60°
2026-04-23 22:17 55.87801 -3.58602 2736 ft 166 kts 60°
2026-04-23 22:17 55.88388 -3.56856 2515 ft 163 kts 60°
2026-04-23 22:18 55.88965 -3.55140 2293 ft 157 kts 60°
2026-04-23 22:18 55.89507 -3.53527 2073 ft 147 kts 60°
2026-04-23 22:18 55.90019 -3.52008 1855 ft 142 kts 60°
2026-04-23 22:18 55.90522 -3.50501 1686 ft 141 kts 60°
2026-04-23 22:19 55.91031 -3.48985 1518 ft 143 kts 60°
2026-04-23 22:19 55.91537 -3.47489 1357 ft 139 kts 60°
2026-04-23 22:19 55.92029 -3.46029 1116 ft 135 kts 60°
2026-04-23 22:19 55.92519 -3.44570 940 ft 139 kts 59°
2026-04-23 22:20 55.93023 -3.43092 759 ft 141 kts 59°
2026-04-23 22:20 55.93529 -3.41584 528 ft 141 kts 59°
2026-04-23 22:20 55.94034 -3.40095 314 ft 139 kts 59°
2026-04-23 22:20 55.94525 -3.38646 149 ft 137 kts 59°
2026-04-23 22:21 55.94981 -3.37302 111 ft 103 kts 59°
2026-04-23 22:21 55.95231 -3.36565 111 ft 40 kts 58°
2026-04-23 22:21 55.95257 -3.36441 110 ft 10 kts 102°
2026-04-23 22:21 55.95184 -3.36342 113 ft 17 kts 149°
2026-04-23 22:22 55.95143 -3.36266 115 ft 4 kts 87°
2026-04-23 22:22 55.95161 -3.36192 113 ft 10 kts 58°
2026-04-23 22:22 55.95216 -3.36035 115 ft 18 kts 58°
2026-04-23 22:22 55.95263 -3.35897 111 ft 5 kts 58°
2026-04-23 22:23 55.95257 -3.35838 112 ft 5 kts 131°
2026-04-23 22:23 55.95222 -3.35780 115 ft 9 kts 125°
2026-04-23 22:23 55.95184 -3.35657 113 ft 14 kts 118°
2026-04-23 22:23 55.95133 -3.35492 113 ft 13 kts 119°
2026-04-23 22:24 55.95114 -3.35400 113 ft 5 kts 72°
2026-04-23 22:24 55.95136 -3.35368 115 ft 3 kts 28°
2026-04-23 22:24 55.95142 -3.35361 116 ft 0 kts 29°